This is the latest recevied weather packets stored in our database for station/object YB4RWH-13. If no packets are shown the sender has not sent any weather packets the latest 1 day(s).
| Time | Temp. | Humidity | Pressure | Rain* | Wind** | Luminosity | Snow |
|---|---|---|---|---|---|---|---|
| 1778062693 | 29.44° C | 71% | 1009.4 hPa | - | - | - | - |
| 1778061790 | 30° C | 70% | 1009.1 hPa | - | - | - | - |
| 1778061490 | 30° C | 70% | 1009.2 hPa | - | - | - | - |
| 1778060891 | 30° C | 70% | 1009 hPa | - | - | - | - |
| 1778059991 | 30.56° C | 71% | 1008.8 hPa | - | - | - | - |
| 1778059690 | 30.56° C | 71% | 1008.7 hPa | - | - | - | - |
| 1778058494 | 31.11° C | 67% | 1008.3 hPa | - | - | - | - |
| 1778057891 | 31.11° C | 69% | 1008.2 hPa | - | - | - | - |
| 1778057590 | 31.11° C | 70% | 1008.1 hPa | - | - | - | - |
| 1778057291 | 31.11° C | 69% | 1008 hPa | - | - | - | - |
| 1778056391 | 30.56° C | 68% | 1008 hPa | - | - | - | - |
| 1778056091 | 30.56° C | 68% | 1008.1 hPa | - | - | - | - |
| 1778055491 | 31.11° C | 69% | 1008 hPa | - | - | - | - |
| 1778054892 | 31.11° C | 68% | 1007.7 hPa | - | - | - | - |
| 1778053990 | 31.11° C | 69% | 1007.8 hPa | - | - | - | - |
| 1778052190 | 30.56° C | 69% | 1008.3 hPa | - | - | - | - |
| 1778050990 | 30.56° C | 69% | 1008.6 hPa | - | - | - | - |
| 1778050691 | 30.56° C | 68% | 1008.6 hPa | - | - | - | - |
| 1778050390 | 30.56° C | 69% | 1008.7 hPa | - | - | - | - |
| 1778050091 | 30.56° C | 72% | 1008.9 hPa | - | - | - | - |
| 1778048891 | 30° C | 70% | 1009.3 hPa | - | - | - | - |
| 1778047990 | 30.56° C | 73% | 1009.5 hPa | - | - | - | - |
| 1778047391 | 30.56° C | 74% | 1009.7 hPa | - | - | - | - |
| 1778046791 | 30.56° C | 74% | 1009.5 hPa | - | - | - | - |
| 1778046190 | 30° C | 74% | 1009.6 hPa | - | - | - | - |
* Rain since midnight (hover to see other rain measurements)
** Current wind speed in m/s (hover to see current wind gust speed)